Weather in Al Qaisumah

Saudi Arabia     28°19′03″N   46°07′32″E
temp.,
°C
wind,
m/s
gust,
m/s
humid.,
%
clouds,
%
prec.,
mm/h
press.,
hPa
HPBL,
m
20 june, sun
sun2000:00+30nnw45120 0.0 100525
03:00+28n44140 0.0 100422
06:00+28n33140 0.0 100623
09:00+37nnw5880 0.0 10061192
12:00+42nnw7850 0.0 10052221
15:00+43n8840 0.0 10032781
18:00+39n6950 0.0 1004144
21:00+33n44100 0.0 100623
21 june, mon
mon2100:00+31nnw45120 0.0 100527
03:00+29n44120 0.0 100527
06:00+29n33120 0.0 100627
09:00+37nnw5770 0.0 1007637
12:00+43n5660 0.0 10051736
15:00+45n6750 0.0 10034144
18:00+42n5860 0.0 1003111
21:00+35n5590 0.0 100430
22 june, tue
tue2200:00+33nne44100 0.0 100316
03:00+32nne33110 0.0 100311
06:00+31n34110 0.0 100525
09:00+39nw4470 0.0 1006535
12:00+44nw5550 0.0 10042430
15:00+46nnw7650 0.0 10024594
18:00+43nnw5760 0.0 100293
21:00+36n4490 0.0 100420
23 june, wed
wed2300:00+33nnw5590 0.0 100432
03:00+31nnw56120 0.0 100549
06:00+30n513140 0.0 1006192
09:00+39n810100 0.0 1007829
12:00+44n8870 0.0 10061943
15:00+45n91060 0.0 10043484
18:00+42n71070 0.0 1004237
21:00+35n57100 0.0 100658
24 june, thu
thu2400:00+32n58130 0.0 100678
03:00+30n59170 0.0 100595
06:00+30nne46180 0.0 100790
09:00+38n68110 0.0 10061003
12:00+43n81060 0.0 10052515
15:00+44n101250 0.0 10033486
18:00+41n81270 0.0 1003292
21:00+34n55100 0.0 100535